TimeCST,TemperatureF,Dew PointF,Humidity,Sea Level PressureIn,VisibilityMPH,Wind Direction,Wind SpeedMPH,Gust SpeedMPH,PrecipitationIn,Events,Conditions,WindDirDegrees,DateUTC
12:15 AM,51.8,46.4,82,29.87,10.0,South,11.5,-,N/A,,Overcast,180,2013-12-20 06:15:00
12:35 AM,53.6,46.4,77,29.87,10.0,South,12.7,-,N/A,,Overcast,180,2013-12-20 06:35:00
12:55 AM,53.6,46.4,77,29.87,10.0,South,12.7,-,N/A,,Overcast,190,2013-12-20 06:55:00
1:15 AM,53.6,46.4,77,29.87,10.0,South,13.8,-,N/A,,Overcast,180,2013-12-20 07:15:00
1:35 AM,53.6,46.4,77,29.87,10.0,South,16.1,-,N/A,,Overcast,190,2013-12-20 07:35:00
1:55 AM,53.6,46.4,77,29.87,10.0,South,15.0,19.6,N/A,,Overcast,190,2013-12-20 07:55:00
2:15 AM,53.6,46.4,77,29.86,10.0,South,16.1,20.7,N/A,,Overcast,190,2013-12-20 08:15:00
2:35 AM,53.6,46.4,77,29.86,10.0,South,17.3,20.7,N/A,,Overcast,190,2013-12-20 08:35:00
2:55 AM,53.6,46.4,77,29.86,10.0,South,16.1,20.7,N/A,,Overcast,190,2013-12-20 08:55:00
3:15 AM,53.6,48.2,82,29.86,10.0,South,15.0,-,N/A,,Overcast,190,2013-12-20 09:15:00
3:35 AM,53.6,48.2,82,29.86,10.0,South,12.7,20.7,N/A,,Overcast,190,2013-12-20 09:35:00
3:55 AM,53.6,48.2,82,29.85,10.0,South,19.6,26.5,N/A,,Overcast,190,2013-12-20 09:55:00
4:15 AM,53.6,48.2,82,29.84,10.0,South,17.3,24.2,N/A,,Overcast,190,2013-12-20 10:15:00
4:35 AM,53.6,48.2,82,29.84,10.0,South,17.3,-,N/A,,Overcast,190,2013-12-20 10:35:00
4:55 AM,53.6,48.2,82,29.83,10.0,South,16.1,21.9,N/A,,Overcast,180,2013-12-20 10:55:00
5:15 AM,55.4,48.2,77,29.83,10.0,South,13.8,-,N/A,,Overcast,190,2013-12-20 11:15:00
5:35 AM,55.4,50.0,82,29.83,10.0,South,17.3,-,N/A,,Overcast,190,2013-12-20 11:35:00
5:55 AM,55.4,50.0,82,29.83,10.0,South,15.0,-,N/A,,Overcast,190,2013-12-20 11:55:00
6:15 AM,55.4,50.0,82,29.83,10.0,SSW,13.8,-,N/A,,Overcast,200,2013-12-20 12:15:00
6:35 AM,55.4,50.0,82,29.84,10.0,SSW,13.8,-,N/A,,Overcast,200,2013-12-20 12:35:00
6:55 AM,55.4,50.0,82,29.84,10.0,South,12.7,20.7,N/A,,Overcast,190,2013-12-20 12:55:00
7:15 AM,55.4,50.0,82,29.84,10.0,SSW,11.5,16.1,N/A,,Overcast,200,2013-12-20 13:15:00
7:35 AM,55.4,50.0,82,29.84,10.0,SSW,12.7,18.4,N/A,,Overcast,200,2013-12-20 13:35:00
7:55 AM,55.4,50.0,82,29.84,10.0,South,15.0,-,N/A,,Overcast,190,2013-12-20 13:55:00
8:15 AM,55.4,51.8,88,29.84,10.0,South,16.1,21.9,N/A,,Overcast,190,2013-12-20 14:15:00
8:35 AM,55.4,51.8,88,29.85,10.0,SSW,15.0,19.6,N/A,,Overcast,200,2013-12-20 14:35:00
8:55 AM,55.4,51.8,88,29.85,10.0,South,12.7,18.4,N/A,,Overcast,190,2013-12-20 14:55:00
9:15 AM,55.4,51.8,88,29.85,10.0,SSW,16.1,-,N/A,,Overcast,200,2013-12-20 15:15:00
9:35 AM,55.4,51.8,88,29.85,10.0,South,16.1,21.9,N/A,,Overcast,190,2013-12-20 15:35:00
9:55 AM,55.4,51.8,88,29.85,10.0,South,19.6,24.2,N/A,,Overcast,190,2013-12-20 15:55:00
10:15 AM,55.4,53.6,94,29.85,10.0,SSW,18.4,25.3,N/A,,Overcast,200,2013-12-20 16:15:00
10:35 AM,57.2,53.6,88,29.85,10.0,SSW,18.4,25.3,N/A,,Overcast,200,2013-12-20 16:35:00
10:55 AM,57.2,53.6,88,29.84,10.0,SSW,17.3,23.0,N/A,,Overcast,200,2013-12-20 16:55:00
11:15 AM,57.2,53.6,88,29.84,10.0,SSW,15.0,21.9,N/A,,Overcast,200,2013-12-20 17:15:00
11:35 AM,57.2,53.6,88,29.83,10.0,SSW,16.1,23.0,N/A,,Overcast,200,2013-12-20 17:35:00
11:55 AM,59.0,53.6,82,29.82,10.0,SSW,16.1,-,N/A,,Overcast,200,2013-12-20 17:55:00
12:15 PM,59.0,53.6,82,29.81,10.0,SSW,13.8,-,N/A,,Overcast,200,2013-12-20 18:15:00
12:35 PM,59.0,53.6,82,29.81,10.0,SSW,15.0,-,N/A,,Overcast,200,2013-12-20 18:35:00
12:55 PM,59.0,55.4,88,29.80,10.0,SSW,15.0,-,N/A,,Overcast,200,2013-12-20 18:55:00
1:15 PM,59.0,55.4,88,29.80,10.0,South,15.0,-,N/A,,Overcast,190,2013-12-20 19:15:00
1:35 PM,59.0,55.4,88,29.78,10.0,South,13.8,18.4,N/A,,Overcast,180,2013-12-20 19:35:00
1:55 PM,59.0,55.4,88,29.79,10.0,South,12.7,-,N/A,,Overcast,190,2013-12-20 19:55:00
2:15 PM,60.8,55.4,82,29.79,10.0,SSW,12.7,-,N/A,,Overcast,200,2013-12-20 20:15:00
2:35 PM,60.8,55.4,82,29.79,10.0,South,12.7,-,N/A,,Overcast,190,2013-12-20 20:35:00
3:00 PM,60.8,55.4,82,29.79,10.0,South,15.0,-,N/A,,Overcast,190,2013-12-20 21:00:00
3:15 PM,60.8,55.4,82,29.79,10.0,South,16.1,-,N/A,,Overcast,190,2013-12-20 21:15:00
3:35 PM,60.8,55.4,82,29.80,10.0,South,15.0,20.7,N/A,,Overcast,190,2013-12-20 21:35:00
3:55 PM,60.8,55.4,82,29.80,10.0,SSW,15.0,20.7,N/A,,Overcast,200,2013-12-20 21:55:00
4:15 PM,60.8,55.4,82,29.81,10.0,SSW,16.1,-,N/A,,Overcast,200,2013-12-20 22:15:00
4:35 PM,60.8,55.4,82,29.80,7.0,South,13.8,-,N/A,,Overcast,190,2013-12-20 22:35:00
4:55 PM,59.0,55.4,88,29.81,7.0,South,15.0,-,N/A,,Light Drizzle,190,2013-12-20 22:55:00
5:10 PM,59.0,55.4,88,29.80,10.0,South,16.1,-,N/A,,Overcast,190,2013-12-20 23:10:00
5:35 PM,59.0,55.4,88,29.80,10.0,South,11.5,18.4,N/A,,Overcast,180,2013-12-20 23:35:00
5:55 PM,59.0,55.4,88,29.80,10.0,SSW,10.4,-,N/A,,Overcast,200,2013-12-20 23:55:00
6:15 PM,59.0,55.4,88,29.80,10.0,South,9.2,-,N/A,,Overcast,180,2013-12-21 00:15:00
6:35 PM,59.0,55.4,88,29.80,10.0,South,13.8,-,N/A,,Light Drizzle,190,2013-12-21 00:35:00
6:55 PM,59.0,55.4,88,29.79,10.0,South,16.1,-,N/A,Rain,Light Rain,180,2013-12-21 00:55:00
7:15 PM,60.8,57.2,88,29.79,10.0,South,13.8,21.9,N/A,,Overcast,190,2013-12-21 01:15:00
7:35 PM,60.8,57.2,88,29.79,10.0,South,13.8,-,N/A,,Overcast,190,2013-12-21 01:35:00
7:55 PM,60.8,57.2,88,29.79,10.0,South,18.4,-,N/A,,Overcast,180,2013-12-21 01:55:00
8:15 PM,60.8,57.2,88,29.78,7.0,South,17.3,-,N/A,Rain,Rain,180,2013-12-21 02:15:00
8:35 PM,59.0,57.2,94,29.80,4.0,West,13.8,18.4,0.06,Rain,Heavy Rain,280,2013-12-21 02:35:00
8:55 PM,55.4,53.6,94,29.81,7.0,NW,13.8,21.9,0.13,Rain,Light Rain,320,2013-12-21 02:55:00
9:15 PM,55.4,53.6,94,29.83,5.0,NW,8.1,-,0.01,Rain,Heavy Rain,320,2013-12-21 03:15:00
9:35 PM,51.8,50.0,94,29.84,4.0,WNW,13.8,-,0.03,Rain,Light Rain,300,2013-12-21 03:35:00
9:55 PM,51.8,50.0,94,29.84,2.5,NW,5.8,-,0.05,Rain,Heavy Rain,320,2013-12-21 03:55:00
10:15 PM,50.0,50.0,100,29.83,3.0,NW,9.2,-,0.02,Rain,Heavy Rain,320,2013-12-21 04:15:00
10:35 PM,50.0,48.2,94,29.83,3.0,NNW,6.9,-,0.03,Rain,Heavy Rain,330,2013-12-21 04:35:00
10:55 PM,50.0,46.4,87,29.83,4.0,NNW,5.8,-,0.03,Rain,Rain,330,2013-12-21 04:55:00
11:15 PM,50.0,46.4,87,29.83,5.0,NNW,6.9,-,N/A,Rain,Light Rain,330,2013-12-21 05:15:00
11:35 PM,50.0,46.4,87,29.82,4.0,NNW,4.6,-,0.01,Rain,Light Rain,330,2013-12-21 05:35:00
11:55 PM,48.2,46.4,93,29.84,5.0,NNW,11.5,-,0.01,Rain,Light Rain,330,2013-12-21 05:55:00